Location: Arclight Observatory
(36.5667°N, 87.3333°W)
Time: 23:47:14
(UTC-05:00)

ISS - Visible Passes

Search period start: 31 October 2014 00:00
Search period end: 09 November 2014 23:00
Orbit: 412 x 417 km, 51.6° (Epoch: 01 November)

Date Brightness Start Highest point End Pass type
(mag) Time Alt. Az. Time Alt. Az. Time Alt. Az.
06 Nov 0.3 05:21:52 10° SE 05:22:36 11° SE 05:23:19 10° ESE visible
08 Nov -1.4 05:17:09 10° SSW 05:20:08 32° SE 05:23:07 10° ENE visible
09 Nov -0.4 04:28:37 10° S 04:30:49 17° SE 04:33:02 10° E visible
